Find Starlink 35140

NORAD ID: 65501 Int'l Des: 2025-198 Owner: SPXS Country: US Constellation: starlink operational
LEOCIRCULAR

リアルタイム位置

3D地球を読み込み中...

Starlink 35140について

説明を読み込み中...

次回通過

Passes for default location (London). Set your location on the main map for personalized predictions.

高度履歴

Loading altitude history...

軌道要素

1 65501U 25198K 26107.16592746 .00005334 00000-0 19201-3 0 9999
2 65501 53.1586 92.0865 0001096 89.7701 270.3425 15.30211405 34513
Epoch: Apr 17, 2026 • Age: 10 hours

現在のステータス

高度 476.5 km
速度 7.63 km/s
衛星直下点 -2.72°S, 146.35°W
打ち上げ日 Sep 5, 2025
運用期間 0.6 years
タイプ internet

技術仕様

分類 Payload
質量 575.00 kg
乾燥質量 530.00 kg
総質量 575.00 kg
長さ 0.30 m
直径 4.10 m
スパン 29.00 m
形状 Box + pan
製造者 SPXS
バスタイプ Starlink V2MO
フェーズステータス In Orbit
所有者/国 SPXS/US

Most Searched